User: anonymous   Login
Location: Unspecified
(0.0000°N, 0.0000°E)
Time: 08:26:24
(UTC+00:00)
Language:

MTI - Orbit

View from above orbital plane
View from above orbital plane
View from above satellite
View from above satellite

Ground track
Ground track

The orbit data is extracted from the following two-line orbital elements,

1 26102U 00014A   19287.61545692  .00004097  00000-0  65358-4 0  9992
2 26102  97.5382 152.2886 0009825  58.3190 301.9020 15.53809556 86162
Epoch (UTC): 14 October 2019 14:46:15
Eccentricity: 0.0009825
inclination: 97.5382°
perigee height: 399 km
apogee height: 412 km
right ascension of ascending node: 152.2886°
argument of perigee: 58.3190°
revolutions per day: 15.53809556
mean anomaly at epoch: 301.9020°
orbit number at epoch: 8616

The dashed part of the orbit path shows where the satellite is in the earth's shadow,  

DLR